Location: Cruquius
(52.3348°N, 4.6319°E)
Time: 09:07:04
(UTC+00:00)

Cosmos 2242 Rocket - Pass Details

Date: 12 May 2021
Orbit: 619 x 650 km, 82.5° (Epoch: 15 June)

Event Time Altitude Azimuth Distance (km) Brightness Sun altitude
Exits shadow 23:31:02 40° 210° (SSW) 929 4.0 -19.3°
Maximum altitude 23:32:33 71° 282° (WNW) 671 3.7 -19.3°
Drops below altitude 10° 23:37:03 10° 7° (N) 2,031 7.4 -19.3°
Sets 23:39:19 0° 10° (N) 2,949 8.6 -19.3°
